Location: ???????
(55.3754°N, 39.3545°E)
Time: 11:31:58
(UTC+00:00)

ADEOS - Pass Details

Date: 14 April 2026
Orbit: 790 x 791 km, 98.8° (Epoch: 10 May)

Event Time Altitude Azimuth Distance (km) Brightness Sun altitude
Exits shadow 17:22:31 - 159° (SSE) 3,038 6.1 -8.2°
Reaches altitude 10° 17:24:13 10° 159° (SSE) 2,355 5.6 -8.4°
Maximum altitude 17:29:26 86° 71° (ENE) 802 3.6 -9.0°
Drops below altitude 10° 17:34:41 10° 344° (NNW) 2,372 6.8 -9.6°
Sets 17:37:01 0° 344° (NNW) 3,305 7.6 -9.9°
